(79) Eurynome
ephemeris date magn radius delta ra dec elong phase
Today19 Apr 202512.52.383 AU2.202 AU07h50m+16°24'87.7°24.9°
Opposition30 Apr 202611.62.905 AU1.898 AU14h33m-13°17'178.3°0.6°
(79) Eurynome - 2025-04-19
astro.vanbuitenen.nl


 
-1 year
-1 month
-1 day
Now
+1 day
+1 month
+1 year

The interactive orbit chart above shows the body's path through the solar system and its position at the given date. Green and blue lines are shown perpendicular to the ecliptic plane: Green if the path is above the ecliptic plane, blue if it is below. (Left-click and drag to rotate the view; Right-click and drag to move the view; Use scroll wheel to zoom in our out.)

The orbital elements of Eurynome are:

            e (Eccentricity)                : 0.1910968
            a (Semimajor axis)              : 2.4441040
            i (Inclination)                 : 4.61307
            Ω (Longitude of ascending node) : 206.50328
            ω (Argument of perihelion)      : 201.41445
            M (Mean anomaly)                : 75.70082
            Epoch                           : 2025 May 05

            L (Longitude of perihelion)     : 227.85461
            B (Latitude of perihelion)      : -1.68271
            P (Orbital period in years)     : 3.82            
        

The light curve chart below shows the estimated development of the minor planet's magnitude.


The all-sky chart below shows the path of the minor planet over the same period as the light curve. The current position is marked yellow.





The following chart shows the path of the minor planet in the next few days. The field of view is optimized for (~10x50) binoculars and finderscopes. A more printer-friendly version of the same chart can be found below.




Ephemerides:
Date       Time       RA (2000)    DEC (2000)    delta   radius  elong  phase   PA    magn
2025-04-19 00:00 UT   07 50 28.6   +16 24 24     2.202    2.383   87.7   24.9   101   12.5 
2025-04-19 20:20 UT   07 51 31.9   +16 23 21     2.214    2.384   87.1   24.9   101   12.5 
2025-04-20 00:00 UT   07 51 43.3   +16 23 09     2.216    2.385   87.0   24.9   101   12.5 
2025-04-21 00:00 UT   07 52 58.8   +16 21 49     2.231    2.387   86.3   24.8   101   12.6 
2025-04-22 00:00 UT   07 54 15.0   +16 20 23     2.245    2.389   85.6   24.8   101   12.6 
2025-04-23 00:00 UT   07 55 31.9   +16 18 52     2.259    2.391   85.0   24.8   101   12.6 
2025-04-24 00:00 UT   07 56 49.4   +16 17 15     2.274    2.393   84.3   24.7   102   12.6 
2025-04-25 00:00 UT   07 58 07.6   +16 15 33     2.288    2.395   83.7   24.7   102   12.6 
2025-04-26 00:00 UT   07 59 26.5   +16 13 45     2.302    2.398   83.0   24.6   102   12.6 
2025-04-27 00:00 UT   08 00 46.0   +16 11 51     2.317    2.400   82.3   24.6   102   12.6 
2025-04-28 00:00 UT   08 02 06.2   +16 09 53     2.331    2.402   81.7   24.5   102   12.7 
2025-04-29 00:00 UT   08 03 26.9   +16 07 48     2.345    2.404   81.0   24.4   102   12.7 
2025-04-30 00:00 UT   08 04 48.2   +16 05 39     2.359    2.406   80.4   24.4   103   12.7 
2025-05-01 00:00 UT   08 06 10.1   +16 03 24     2.374    2.408   79.8   24.3   103   12.7 
2025-05-02 00:00 UT   08 07 32.6   +16 01 03     2.388    2.410   79.1   24.2   103   12.7 
2025-05-03 00:00 UT   08 08 55.6   +15 58 37     2.402    2.412   78.5   24.2   103   12.7 
2025-05-04 00:00 UT   08 10 19.1   +15 56 05     2.416    2.415   77.9   24.1   103   12.7 
2025-05-05 00:00 UT   08 11 43.1   +15 53 28     2.430    2.417   77.2   24.0   103   12.7 
2025-05-06 00:00 UT   08 13 07.5   +15 50 46     2.444    2.419   76.6   23.9   104   12.8 
2025-05-07 00:00 UT   08 14 32.5   +15 47 58     2.459    2.421   76.0   23.9   104   12.8 
2025-05-08 00:00 UT   08 15 57.9   +15 45 05     2.473    2.423   75.4   23.8   104   12.8 
2025-05-09 00:00 UT   08 17 23.8   +15 42 07     2.487    2.425   74.7   23.7   104   12.8 
2025-05-10 00:00 UT   08 18 50.0   +15 39 04     2.501    2.427   74.1   23.6   104   12.8 
2025-05-11 00:00 UT   08 20 16.7   +15 35 55     2.515    2.429   73.5   23.5   104   12.8 
2025-05-12 00:00 UT   08 21 43.8   +15 32 41     2.529    2.431   72.9   23.4   105   12.8 
2025-05-13 00:00 UT   08 23 11.3   +15 29 21     2.543    2.434   72.3   23.3   105   12.8 
2025-05-14 00:00 UT   08 24 39.2   +15 25 57     2.556    2.436   71.7   23.2   105   12.9 


    Terminology:
            
    delta:  distance between minor planet and earth in AU
    radius: distance between minor planet and sun in AU
    magn:   magnitude (brightness) estimate    
    ra:     right ascension in hours (24h = 360deg)
    dec:    declination in degrees
    elong:  elongation in degrees (angle sun-earth-minor planet)    
    phase:  phase angle in degrees (angle sun-minor planet-earth)        
    AU:     Astronomical Unit (mean distance between earth and sun: 149597870.7 km
    

Orbital elements provided by the MPC (Minor Planet Center).
Calculations by a modified version of AAPlus, a C# implementation of the AA+ project by PJ Naughter from the algorithms presented in the book "Astronomical Algorithms" by Jean Meeus.
NGC2000 dso catalog and star labels from VizieR as provided by the Strasbourg astronomical Data Center.
Tycho2 catalog from the ESO archive.